TITAN 3C TRANSTAGE DEB, 1915

Orbit data source: Space-Track

TITAN 3C TRANSTAGE DEB, 1915 is space debris in LEO originally from a launch on Fri, 15 Oct 1965 UTC launched from the Air Force Eastern Test Range (AFETR). Debris objects in space refer to the collection of defunct objects orbiting the Earth. Examples of debris include non-operational satellites, rocket bodies, and fragments generated from explosions, collisions, or faulty payload assembly.

Loading next visibility...
Identifier
1915, 1965-082FZ
Orbit
LEO
Country
Flag of USUS
Related business
Manufacturer
Unknown
Mission
Spacecraft
Bus & Motor
Unknown
Mass
Unknown
Launch date (UTC)
1965-10-15 (60 years ago)
Launch vehicle
Unknown
Launch site
Air Force Eastern Test Range (AFETR)
Object type
Payload
Rocket body
Debris
Shape & HBR
Unknown shape, 0.1 m
Radar Cross Section
Small (<0.1 m²)

Expand to show TLE details & history
Last TLE update: 7 hours ago

TLE from 7 hours ago
0 TITAN 3C TRANSTAGE DEB
1  1915U 65082FZ  26037.03023244  .00000687  00000-0  13617-3 0  9995
2  1915  31.8782 345.1470 0028907 172.7814 187.3245 14.58365148196266
Epoch: 2026-02-06T00:43Z
TLE epoch observation values (Epoch: 2026-02-06T00:43:32.082Z)
Latitude
-0.00006°
Longitude
-161.91073°
Altitude
717.371 km
Speed
7.488 km/s
True Right ascension
23h 00m 35s
True Declination
0° 00' 00"
Sunlit
Object was in daylight at epoch
Visualization orbit readout
Latitude
Unknown
Longitude
Unknown
Altitude
Unknown
Speed
Unknown
Apparent Right ascension
Unknown
Apparent Declination
Unknown
Sunlit
N/A
Visualization observer readout
Local Sidereal Time
09:45:12
Azimuth
Unknown
Elevation
Unknown
Doppler factor
Unknown
Orbital elements
Apogee altitude
722.55 km
Perigee altitude
681.617 km
Semi-major axis
7,080.22 km
Eccentricity
0.00289
Inclination
31.8782°
RAAN
345.147°
Arg. of periapsis
172.7814°
True anomaly
187.28242°
Mean anomaly
187.3245°
Eccentric anomaly
187.30345°
Mean motion
3.64312 °/min
Orbital period
98.82 mins
BSTAR
0.00013617

Documentation

Showing up to 5 results
|